Regional Weather Roundup
Issued by NWS New Orleans/Baton Rouge, LA

Home | Current Version | Previous Version | Graphics & Text | Print | Product List | Glossary On
Versions: 1 2 3 4 5 6 7 8 9 10 11 12 13 14 15 16 17 18 19 20 21 22 23 24 25 26 27 28 29 30 31 32 33 34 35 36 37 38 39 40 41 42 43 44 45 46 47 48 49 50
722
ASUS44 KLIX 242210
RWRLIX
NEW ORLEANS REGIONAL WEATHER ROUNDUP
NATIONAL WEATHER SERVICE NEW ORLEANS LA
500 PM CDT FRI OCT 24 2014

NOTE: "FAIR" INDICATES FEW OR NO CLOUDS BELOW 12,000 FEET WITH NO
      SIGNIFICANT WEATHER AND/OR OBSTRUCTIONS TO VISIBILITY.
      SKY/WX - SKY CONDITION AND SIGNIFICANT WEATHER.
      TMP - AIR TEMPERATURE.     DP    - DEWPOINT TEMPERATURE.
      RH  - RELATIVE HUMIDITY.   PRES  - PRESSURE.
      HI  - HEAT INDEX.          WCI   - WIND CHILL INDEX.

*  THESE STATIONS ARE NOT NWS OR FAA STATIONS AND ARE NOT UNDER
   NWS QUALITY CONTROL.

LAZ038-040-048-061>063-065>067-069-242300-
SOUTHEAST LOUISIANA

CITY           SKY/WX    TMP DP  RH WIND       PRES   REMARKS
N.O. AUDUBON   NOT AVBL
N.O. INTL ARPT MOSUNNY   75  45  34 N6        30.04F
N.O. LAKEFRONT SUNNY     73  52  47 W10       30.04F
N.O. DOWNTOWN*   N/A     75  45  33 N6        30.05R
SLIDELL        SUNNY     77  44  30 N7        30.03S
BATON ROUGE    SUNNY     76  41  28 VRB5      30.07R
BOOTHVILLE     SUNNY     73  48  41 NE7       30.04R
BELLE CHASSE   MOSUNNY   75  44  33 VRB5      30.04S
BOGALUSA*        N/A     77  40  26 N6        30.06R
NEW ROADS*       N/A     73  50  44 NW9       30.09R
GONZALES*        N/A     75  46  34 N6        30.05R
HAMMOND*       SUNNY     77  39  25 NW7       30.07R
HOUMA*         SUNNY     75  39  27 NE5       30.04S
PORT FOURCHON* CLEAR     75  45  33 N10       30.07R

$$

MSZ070-080>082-242300-
SOUTHERN MISSISSIPPI

CITY           SKY/WX    TMP DP  RH WIND       PRES   REMARKS
MCCOMB         SUNNY     75  43  31 N8        30.07R
GULFPORT       SUNNY     77  44  30 N9        30.02R
BILOXI         SUNNY     76  47  35 N8        30.02R
PASCAGOULA     SUNNY     76  44  32 NW8       30.02R
STENNIS ARPT*  SUNNY     75  39  27 N6        30.03S

$$

COASTAL OBSERVATIONS
LAKE AND NEARSHORE STATIONS

STATION/POSITION TIME  TEMP    WIND        PRES    WAVE
                       AIR SEA DIR/SP/G            HT/PER
                 (UTC) (F)     (DEG/KT/KT) (MB)    (FT/S)
PASCAGOULA       2200   78      20/  7/ 12 1015.7
WAVELAND YACHT   2200   74     360/  9/ 11 1016.1
GRAND ISLE       2200   75 73  360/  7/  9 1017.7
SOUTHWEST PASS   2200   76 81              1017.4
NEW CANAL        2200   74 71  310/  3/  5 1017.7
SHELL BEACH      2200   71 68  300/  9/ 10 1016.8

OFFSHORE STATIONS

STATION/POSITION TIME  TEMP    WIND        PRES    WAVE
                       AIR SEA DIR/SP/G            HT/PER
                 (UTC) (F)     (DEG/KT/KT) (MB)    (FT/S)
64 S DAUPHIN ISL 2144   71 79  360/ 14/ 17 1016.9    2/ 7

$$




USA.gov is the U.S. government's official web portal to all federal, state and local government web resources and services.